Date,TemperatureHighF,TemperatureAvgF,TemperatureLowF,DewpointHighF,DewpointAvgF,DewpointLowF,HumidityHigh,HumidityAvg,HumidityLow,PressureMaxIn,PressureMinIn,WindSpeedMaxMPH,WindSpeedAvgMPH,GustSpeedMaxMPH,PrecipitationSumIn
2013-1-1,53.6,41.7,28.2,25.5,21.7,15.6,74,48,29,30.32,30.19,14,1,14,0.00
2013-1-2,60.4,46.3,30.3,21.9,18.2,14.4,61,35,17,30.24,30.07,12,1,12,0.00
2013-1-3,62.1,49.2,34.6,20.9,14.5,6.6,55,27,11,30.24,30.10,19,2,19,0.00
2013-1-4,60.1,44.9,33.1,18.3,14.6,9.4,50,31,14,30.36,30.23,12,1,12,0.00
2013-1-5,60.5,42.9,27.1,22.3,17.7,12.7,64,40,16,30.39,30.21,14,2,14,0.00
2013-1-6,64.0,46.9,33.0,30.8,22.5,17.5,62,40,19,30.22,29.96,9,1,9,0.00
2013-1-7,65.1,49.4,33.1,32.3,26.2,18.1,78,45,20,30.04,29.92,18,1,18,0.00
2013-1-8,72.8,54.1,33.1,31.2,24.4,17.3,64,34,18,30.12,29.97,12,1,12,0.00
2013-1-9,70.9,54.7,40.3,33.4,30.5,24.4,61,42,23,30.19,29.94,14,1,14,0.00
2013-1-10,64.1,52.0,42.9,42.8,32.7,15.6,67,49,28,29.98,29.76,26,4,26,0.00
2013-1-11,56.1,45.5,34.1,24.8,20.1,15.0,63,38,21,30.16,29.97,15,2,15,0.00
2013-1-12,52.6,43.3,31.9,22.8,12.9,-0.8,53,31,12,30.18,30.03,18,2,18,0.00
2013-1-13,52.1,37.4,22.2,14.5,8.3,3.9,55,32,16,30.23,30.09,12,1,12,0.00
2013-1-14,47.9,39.2,30.1,8.6,1.1,-4.8,31,20,11,30.39,30.18,31,8,31,0.00
2013-1-15,52.9,41.3,30.5,14.3,6.9,2.3,36,24,17,30.56,30.39,15,2,15,0.00
2013-1-16,61.7,46.3,30.0,23.1,18.7,11.7,49,34,21,30.47,30.27,15,1,15,0.00
2013-1-17,68.8,50.0,32.3,25.6,20.8,16.6,60,35,16,30.34,30.17,28,1,28,0.00
2013-1-18,71.3,52.8,35.2,28.2,19.9,16.6,51,30,14,30.28,30.13,17,2,17,0.00
2013-1-19,71.9,53.8,36.4,25.0,21.3,17.0,51,31,15,30.29,30.14,12,1,12,0.00
2013-1-20,73.5,53.3,35.5,25.1,18.5,11.4,56,29,12,30.22,30.05,28,1,28,0.00
2013-1-21,74.3,54.3,35.6,24.1,14.3,5.7,58,24,7,30.18,30.05,20,2,20,0.00
2013-1-22,75.3,55.0,36.7,24.1,16.1,9.3,42,24,8,30.20,30.07,13,1,13,0.00
2013-1-23,73.8,58.3,44.4,35.5,24.2,16.3,44,28,15,30.17,30.03,16,2,16,0.00
2013-1-24,70.3,61.4,54.3,51.4,41.0,27.1,75,48,30,30.19,30.07,16,2,16,0.00
2013-1-25,70.0,62.0,57.3,57.1,51.5,46.4,93,70,46,30.18,29.97,12,1,12,0.32
2013-1-26,67.5,59.3,56.3,60.5,56.7,54.8,97,91,71,29.97,29.88,10,1,10,0.45
2013-1-27,69.8,60.9,52.4,57.9,51.9,38.2,97,74,52,29.95,29.86,17,2,17,0.00
2013-1-28,59.0,50.4,42.7,39.5,32.2,22.2,77,52,28,30.10,29.92,22,3,22,0.00
2013-1-29,64.2,50.4,39.9,37.8,31.7,25.5,75,50,28,30.22,30.08,9,1,9,0.00
2013-1-30,66.8,51.4,37.6,42.1,37.3,31.8,88,63,28,30.39,30.22,7,1,7,0.00
2013-1-31,71.0,53.4,37.6,44.1,39.6,34.6,90,63,31,30.29,30.12,13,1,13,0.00
2013-2-1,73.6,56.0,40.9,44.7,40.0,35.6,88,60,26,30.22,30.11,13,1,13,0.00
2013-2-2,74.0,58.3,45.3,44.1,40.8,36.6,83,56,27,30.27,30.12,13,1,13,0.00
2013-2-3,74.4,61.8,53.7,52.0,45.3,40.6,81,57,31,30.13,29.96,13,1,13,0.00
2013-2-4,76.8,60.1,43.6,45.6,40.5,34.1,86,53,22,30.07,29.92,13,1,13,0.00
2013-2-5,80.7,59.1,41.5,43.0,38.5,27.3,87,52,15,30.03,29.86,10,1,10,0.00
2013-2-6,75.7,61.1,45.1,43.5,39.4,33.1,78,48,22,30.00,29.85,12,1,12,0.00
2013-2-7,74.3,59.2,40.6,40.6,36.0,29.8,82,46,20,30.09,29.85,10,1,10,0.00
2013-2-8,64.3,56.2,49.8,41.1,34.1,25.5,60,44,24,29.91,29.81,24,5,24,0.00
2013-2-9,63.2,51.8,40.2,34.5,30.3,23.3,74,46,24,30.02,29.83,22,3,22,0.00
2013-2-10,62.4,51.2,37.2,36.5,31.2,26.9,80,49,27,30.04,29.94,12,2,12,0.00
2013-2-11,60.4,48.7,38.2,37.2,27.3,14.2,78,46,18,30.21,29.98,17,2,17,0.00
2013-2-12,62.4,47.9,32.4,24.4,18.4,11.7,62,34,14,30.35,30.21,14,1,14,0.00
2013-2-13,69.8,50.6,32.6,32.7,25.2,19.9,69,41,18,30.27,30.10,17,2,17,0.00
2013-2-14,75.8,56.3,37.7,37.7,30.3,25.8,72,42,19,30.19,30.04,20,2,20,0.00
2013-2-15,64.8,61.7,54.3,25.3,22.4,20.5,32,22,19,30.25,30.19,6,1,6,0.00
2013-2-16,77.6,59.8,43.7,30.9,22.8,9.9,50,27,9,30.25,29.95,20,3,20,0.00
2013-2-17,79.5,58.7,35.7,32.3,22.5,11.4,59,28,8,29.95,29.80,7,1,7,0.00
2013-2-18,76.4,58.8,39.9,36.2,31.3,25.9,63,38,16,30.02,29.85,14,2,14,0.00
2013-2-19,66.5,55.4,39.6,38.3,33.2,28.3,69,44,28,29.86,29.67,23,4,23,0.00
2013-2-20,55.9,49.2,39.9,41.4,37.0,30.6,85,64,45,29.91,29.63,19,3,19,0.16
2013-2-21,59.9,47.7,34.9,40.9,35.5,29.8,94,66,33,30.06,29.91,14,1,14,0.00
2013-2-22,65.5,49.6,31.8,38.7,33.3,24.2,93,59,22,30.21,30.06,14,1,14,0.00
2013-2-23,72.8,55.4,35.3,34.5,28.7,19.3,83,42,14,30.15,29.78,19,2,19,0.00
2013-2-24,62.6,54.6,45.1,22.5,12.1,4.7,31,19,10,30.17,29.90,39,13,39,0.00
2013-2-25,67.9,51.8,34.1,22.5,17.1,8.5,54,28,10,30.27,30.02,14,1,14,0.00
2013-2-26,69.8,53.4,34.6,25.8,17.2,4.3,61,29,8,30.16,29.99,25,4,25,0.00
2013-2-27,67.8,55.7,45.6,18.1,8.9,-16.7,28,17,3,30.31,30.15,24,4,24,0.00
2013-2-28,75.8,57.8,39.6,24.2,13.1,2.5,32,19,8,30.38,30.24,14,2,14,0.00
2013-3-1,82.3,58.4,42.3,29.6,14.8,-99.9,51,23,10,30.37,30.18,15,-65,15,0.00
2013-3-2,84.0,64.6,45.2,39.6,32.0,23.8,58,32,15,30.27,30.03,15,2,15,0.00
2013-3-3,81.7,65.9,48.0,41.4,31.7,21.9,58,32,11,30.04,29.82,16,2,16,0.00
2013-3-4,80.4,66.4,52.1,41.5,37.1,25.4,53,35,21,30.01,29.84,18,2,18,0.00
2013-3-5,79.3,64.4,49.1,42.9,38.8,32.5,64,41,24,30.08,29.91,12,1,12,0.00
2013-3-6,82.5,66.0,54.6,44.0,35.9,14.5,63,36,9,30.01,29.82,15,3,15,0.00
2013-3-7,75.3,61.5,46.4,43.4,38.7,33.4,69,45,24,29.94,29.82,19,3,19,0.00
2013-3-8,64.7,57.2,52.0,46.8,37.9,29.6,82,50,28,29.94,29.76,29,4,29,0.02
2013-3-9,70.3,58.2,50.3,40.3,36.5,32.4,61,46,26,30.10,29.93,23,3,23,0.00
2013-3-10,75.3,60.0,41.3,39.4,31.0,19.3,80,40,13,30.22,30.09,21,3,21,0.00
2013-3-11,81.5,62.8,41.4,32.6,28.2,22.8,54,29,14,30.18,29.98,14,2,14,0.00
2013-3-12,86.5,67.1,44.9,33.6,29.6,22.3,52,28,11,30.09,29.96,11,1,11,0.00
2013-3-13,90.3,71.0,50.5,39.2,33.0,24.7,53,28,10,30.12,29.98,16,2,16,0.00
2013-3-14,93.8,73.9,51.4,41.3,34.2,27.9,53,27,10,30.09,29.91,17,3,17,0.00
2013-3-15,97.5,74.9,50.9,47.1,34.5,28.1,54,25,9,29.96,29.76,11,1,11,0.00
2013-3-16,94.8,76.6,59.4,46.4,35.3,26.8,56,25,10,29.80,29.65,11,1,11,0.00
2013-3-17,89.0,73.4,56.3,38.4,25.9,8.9,42,20,5,29.85,29.71,16,2,16,0.00
2013-3-18,87.7,72.4,55.6,43.3,30.0,16.9,51,24,9,29.94,29.80,12,2,12,0.00
2013-3-19,87.7,72.7,54.8,46.6,33.9,22.2,56,28,10,29.96,29.84,12,1,12,0.00
2013-3-20,88.3,72.6,54.0,51.0,37.8,25.5,46,30,16,29.98,29.75,13,2,13,0.00
2013-3-21,88.2,75.1,62.6,45.5,36.1,7.7,46,26,6,29.79,29.62,15,3,15,0.00
2013-3-22,83.6,69.9,52.4,43.4,28.7,-8.9,65,26,5,29.77,29.62,19,3,19,0.00
2013-3-23,74.9,64.1,50.6,25.2,8.8,-1.8,33,12,6,30.04,29.77,31,7,31,0.00
2013-3-24,80.8,64.8,44.6,26.2,10.7,-2.3,31,13,5,30.04,29.86,17,2,17,0.00
2013-3-25,85.5,67.7,45.3,36.1,20.7,8.7,54,19,7,29.97,29.82,13,2,13,0.00
2013-3-26,89.9,73.0,55.5,40.0,27.1,16.5,47,20,8,29.86,29.72,20,2,20,0.00
2013-3-27,90.0,73.3,55.7,42.2,33.6,20.6,45,25,9,29.87,29.77,18,2,18,0.00
2013-3-28,85.8,73.6,57.1,48.1,41.4,33.6,67,33,18,29.99,29.87,14,2,14,0.00
2013-3-29,88.2,73.7,57.4,47.6,40.3,32.9,66,32,16,30.04,29.92,12,2,12,0.00
2013-3-30,90.4,76.8,64.5,50.3,39.6,26.0,56,29,10,29.99,29.86,16,2,16,0.00
2013-3-31,88.1,75.0,59.3,48.8,41.6,35.1,63,31,19,29.95,29.84,22,4,22,0.00
2013-4-1,83.6,70.0,55.8,47.7,36.8,26.4,61,33,13,30.00,29.85,17,2,17,0.00
2013-4-2,85.3,71.3,52.6,42.9,35.8,26.4,69,31,12,29.97,29.82,21,2,21,0.00
2013-4-3,93.2,74.5,54.2,41.7,33.0,27.4,40,24,11,30.02,29.88,16,2,16,0.00
2013-4-4,92.8,76.5,55.6,46.2,37.7,25.5,53,27,9,29.98,29.82,18,2,18,0.00
2013-4-5,90.5,77.4,62.7,45.3,39.4,25.1,47,28,10,29.93,29.77,14,2,14,0.00
2013-4-6,92.0,74.0,55.4,47.6,39.5,28.8,65,33,12,29.92,29.75,12,1,12,0.00
2013-4-7,90.5,74.8,54.5,43.8,39.3,33.7,63,30,15,29.84,29.62,10,1,10,0.00
2013-4-8,77.5,69.3,62.0,46.8,38.3,21.1,51,33,16,29.62,29.43,34,6,34,0.00
2013-4-9,77.0,66.5,57.7,33.9,25.9,17.4,36,23,11,29.93,29.61,28,9,28,0.00
2013-4-10,80.5,67.8,56.9,29.2,22.8,12.8,30,19,8,30.07,29.90,37,7,37,0.00
2013-4-11,93.1,71.8,46.7,39.0,26.0,13.8,62,22,6,29.93,29.63,17,2,17,0.00
2013-4-12,91.2,74.5,53.0,36.5,28.2,19.3,42,20,8,29.76,29.65,14,2,14,0.00
2013-4-13,93.7,78.3,57.2,45.5,34.6,23.1,47,23,8,29.76,29.58,22,3,22,0.00
2013-4-14,89.3,78.7,68.2,47.4,38.8,27.8,43,25,16,29.66,29.52,20,4,20,0.00
2013-4-15,82.3,71.1,61.9,46.9,42.2,36.6,55,36,24,29.70,29.59,24,5,24,0.00
2013-4-16,75.8,65.5,55.1,39.7,34.2,20.4,49,33,17,29.83,29.67,20,3,20,0.00
2013-4-17,75.8,65.6,56.7,33.1,21.2,10.2,37,20,9,30.08,29.83,27,6,27,0.00
2013-4-18,76.2,65.3,54.4,25.7,15.8,6.4,28,16,7,30.22,30.07,28,5,28,0.00
2013-4-19,86.0,66.9,42.2,26.9,16.0,1.0,44,17,4,30.18,29.91,15,2,15,0.00
2013-4-20,93.3,80.2,52.2,29.0,20.5,13.6,36,12,6,29.94,29.81,11,2,14,0.00
2013-4-21,96.5,78.3,56.2,35.8,25.6,9.1,38,17,5,29.96,29.79,17,2,17,0.00
2013-4-22,96.5,79.4,57.9,40.8,28.4,18.3,34,17,7,29.86,29.65,19,3,19,0.00
2013-4-23,88.3,75.8,60.3,41.5,10.4,-27.4,48,14,1,29.89,29.67,35,7,35,0.00
2013-4-24,90.8,73.2,52.8,33.7,13.7,-10.0,30,12,3,29.88,29.69,18,3,18,0.00
2013-4-25,87.8,73.3,58.8,46.4,39.2,25.3,56,31,16,29.95,29.75,15,2,15,0.00
2013-4-26,95.0,76.9,57.4,50.9,39.7,26.4,66,31,11,30.07,29.94,13,2,13,0.00
2013-4-27,100.0,81.9,58.5,42.4,28.2,-5.1,50,19,2,30.02,29.81,18,2,18,0.00
2013-4-28,102.5,83.7,56.8,38.0,21.3,-17.2,35,13,1,29.85,29.65,11,2,12,0.00
2013-4-29,107.8,87.2,62.6,45.1,29.0,1.6,40,15,3,29.72,29.54,15,2,15,0.00
2013-4-30,101.8,87.4,65.5,45.1,26.2,10.4,41,13,4,29.66,29.55,22,3,22,0.00
2013-5-1,94.8,80.4,62.4,51.3,18.4,-27.3,51,17,1,30.00,29.66,27,6,27,0.00
2013-5-2,91.2,77.5,63.5,24.6,9.3,-9.1,15,8,3,30.18,29.96,29,6,29,0.00
2013-5-3,93.7,78.8,60.8,32.4,14.7,-7.8,29,10,2,29.98,29.71,19,4,19,0.00
2013-5-4,98.4,80.0,55.4,39.5,24.0,2.7,43,15,3,29.71,29.54,20,3,20,0.00
2013-5-5,88.2,78.4,68.3,46.2,30.4,15.5,45,19,9,29.81,29.65,21,4,21,0.00
2013-5-6,83.0,72.4,63.7,49.1,46.6,43.6,53,41,27,29.93,29.79,25,5,25,0.00
2013-5-7,79.0,69.8,60.3,46.7,43.3,39.1,52,40,26,29.97,29.85,24,4,24,0.00
2013-5-8,83.4,71.8,54.5,48.6,42.4,31.4,70,37,17,30.01,29.87,16,2,16,0.00
2013-5-9,90.5,75.1,55.8,50.5,42.2,30.0,66,34,12,29.95,29.82,15,2,15,0.00
2013-5-10,96.5,79.1,59.5,49.1,43.1,37.8,59,31,14,29.98,29.85,16,2,16,0.00
2013-5-11,102.2,85.6,63.7,45.0,37.8,28.1,50,21,8,30.00,29.88,17,3,22,0.00
2013-5-12,102.5,86.9,65.6,46.3,36.7,28.8,36,19,8,30.02,29.83,17,2,17,0.00
2013-5-13,107.1,89.8,67.5,52.4,34.3,15.9,50,17,4,29.93,29.75,11,1,11,0.00
2013-5-14,107.3,90.6,72.2,53.5,37.3,13.5,36,17,6,29.83,29.67,20,4,20,0.00
2013-5-15,100.2,86.4,63.3,46.1,30.3,13.5,31,15,6,29.86,29.69,18,3,18,0.00
2013-5-16,101.3,85.9,64.8,49.2,37.8,21.0,52,21,6,29.78,29.61,20,3,20,0.00
2013-5-17,94.7,80.6,64.9,50.6,42.6,30.6,49,28,13,29.81,29.69,21,3,21,0.00
2013-5-18,95.7,80.8,66.3,51.6,42.6,28.4,55,29,10,29.88,29.75,13,2,13,0.00
2013-5-19,99.5,83.4,63.4,50.0,38.2,23.5,57,24,7,29.85,29.68,12,1,12,0.00
2013-5-20,94.8,83.0,68.2,43.0,29.2,16.5,37,16,6,29.91,29.75,28,5,28,0.00
2013-5-21,102.1,84.2,59.4,44.4,29.9,4.2,41,17,3,29.84,29.61,15,2,15,0.00
2013-5-22,101.7,87.5,68.6,49.1,30.8,12.0,44,16,5,29.67,29.51,22,4,22,0.00
2013-5-23,95.7,82.0,65.6,41.1,16.9,-21.5,33,11,1,29.75,29.62,22,3,22,0.00
2013-5-24,94.8,79.7,61.6,45.3,32.0,8.2,43,21,5,29.84,29.72,20,3,20,0.00
2013-5-25,96.2,84.9,72.1,40.1,23.7,7.4,25,12,4,29.85,29.73,23,4,23,0.00
2013-5-26,96.0,85.3,61.6,47.6,31.6,8.5,47,18,4,29.88,29.75,21,4,21,0.00
2013-5-27,99.5,82.7,67.2,54.5,40.6,23.9,54,26,8,29.81,29.63,14,2,14,0.00
2013-5-28,98.5,83.1,65.1,57.2,46.5,37.9,57,31,15,29.65,29.50,16,2,16,0.00
2013-5-29,102.0,87.0,71.8,53.5,45.4,31.0,50,26,10,29.68,29.52,13,2,13,0.00
2013-5-30,98.4,84.7,66.2,58.5,53.0,46.8,63,36,19,29.75,29.63,20,4,20,0.00
2013-5-31,101.5,85.9,67.4,60.5,54.9,48.6,71,38,19,29.82,29.68,13,2,13,0.00
2013-6-1,108.8,91.7,72.7,58.5,42.7,21.0,57,24,6,29.75,29.59,14,2,14,0.00
2013-6-2,107.8,92.3,70.3,57.9,45.7,28.0,49,23,10,29.66,29.51,20,3,20,0.00
2013-6-3,103.7,89.0,71.4,57.5,44.5,34.7,50,23,10,29.70,29.56,19,4,19,0.00
2013-6-4,103.5,87.9,67.7,56.4,42.8,20.3,51,24,9,29.76,29.64,17,3,17,0.00
2013-6-5,106.3,89.3,65.6,56.4,42.1,23.3,64,25,6,29.80,29.64,14,3,14,0.00
2013-6-6,112.8,93.5,70.6,54.3,37.3,12.0,53,18,3,29.72,29.56,12,2,12,0.00
2013-6-7,115.2,94.9,72.8,55.8,39.7,14.0,46,19,3,29.67,29.51,15,2,15,0.00
2013-6-8,108.5,91.4,69.6,57.2,48.3,37.1,51,25,9,29.70,29.58,25,4,25,0.00
2013-6-9,105.2,87.6,69.8,59.1,49.9,38.8,60,31,14,29.80,29.66,21,4,21,0.00
2013-6-10,108.3,89.5,69.3,56.3,43.3,29.1,49,23,7,29.77,29.63,21,4,21,0.00
2013-6-11,104.7,90.4,70.2,58.0,40.7,21.4,62,20,8,29.81,29.68,11,2,11,0.00
2013-6-12,107.8,92.7,70.3,63.4,47.8,28.9,56,24,12,29.80,29.69,17,4,20,0.00
2013-6-13,107.1,92.9,72.1,61.8,38.1,0.0,52,19,3,29.83,29.65,19,2,19,0.00
2013-6-14,105.6,89.7,69.5,60.4,49.7,36.8,58,28,14,29.78,29.60,18,3,18,0.00
2013-6-15,105.3,90.8,70.9,62.6,39.0,14.1,51,19,5,29.77,29.67,23,4,23,0.00
2013-6-16,106.0,90.2,68.2,51.4,28.8,-11.8,46,14,2,29.84,29.70,17,3,17,0.00
2013-6-17,106.0,88.8,63.4,59.8,35.6,10.4,56,17,7,29.82,29.67,14,2,14,0.00
2013-6-18,106.0,90.3,69.1,54.5,34.9,11.4,46,17,5,29.75,29.58,24,3,24,0.00
2013-6-19,102.5,89.3,68.8,51.4,39.9,14.7,51,20,6,29.69,29.57,11,2,11,0.00
2013-6-20,103.8,88.3,71.1,50.1,33.6,6.6,44,18,3,29.73,29.60,19,3,19,0.00
2013-6-21,104.0,88.5,70.2,61.4,38.4,19.3,47,20,5,29.75,29.61,18,4,18,0.00
2013-6-22,105.8,89.5,69.2,59.6,39.5,15.2,45,21,4,29.75,29.59,18,2,18,0.00
2013-6-23,102.7,90.3,74.2,52.2,42.7,26.1,42,21,7,29.68,29.54,21,5,21,0.00
2013-6-24,101.5,88.9,74.9,53.6,38.5,16.8,37,19,5,29.74,29.60,20,2,20,0.00
2013-6-25,99.7,87.8,69.9,63.9,54.7,45.4,62,35,17,29.83,29.70,14,3,14,0.00
2013-6-26,104.3,91.1,72.2,66.7,55.2,43.7,65,33,14,29.88,29.76,18,4,18,0.00
2013-6-27,110.8,93.0,73.3,65.3,54.0,41.6,54,29,14,29.94,29.77,11,2,11,0.00
2013-6-28,119.5,100.1,80.6,70.7,55.6,40.4,58,27,8,29.82,29.60,12,2,12,0.00
2013-6-29,119.2,101.5,80.5,69.2,54.3,37.0,54,24,7,29.69,29.55,15,2,15,0.00
2013-6-30,115.9,97.7,79.4,73.6,60.8,52.0,61,33,14,29.71,29.54,20,3,20,0.00
2013-7-1,113.7,99.9,84.2,72.3,60.5,50.3,57,30,13,29.76,29.61,21,3,21,0.00
2013-7-2,111.7,100.1,84.3,68.8,58.2,48.7,47,26,13,29.87,29.64,15,3,24,0.00
2013-7-3,114.5,101.6,85.6,70.5,53.8,44.0,59,23,10,29.72,29.54,16,1,16,0.00
2013-7-4,109.8,99.4,84.9,66.4,58.8,52.0,49,27,18,29.69,29.52,20,3,20,0.00
2013-7-5,102.8,91.3,80.9,68.6,61.3,49.6,60,39,23,29.71,29.58,21,4,21,0.00
2013-7-6,107.0,92.0,77.3,66.7,56.0,47.0,51,32,15,29.70,29.54,15,2,15,0.00
2013-7-7,111.3,92.6,77.4,62.6,53.1,43.6,52,28,11,29.64,29.55,7,0,7,0.00
2013-7-8,113.8,100.1,81.9,69.9,53.9,36.7,57,23,8,29.77,29.64,11,2,11,0.00
2013-7-9,105.8,93.2,78.7,72.3,66.7,50.3,67,44,17,29.95,29.74,17,4,17,0.00
2013-7-10,101.6,92.3,82.8,72.4,67.9,63.0,70,46,31,29.89,29.73,21,5,21,0.00
2013-7-11,92.7,83.7,74.8,77.2,72.2,65.3,93,70,50,29.92,29.74,20,3,20,0.39
2013-7-12,103.1,90.2,77.5,78.1,70.7,61.6,91,57,27,29.83,29.67,16,2,16,0.00
2013-7-13,104.0,93.3,78.8,74.1,66.2,56.7,80,44,23,29.83,29.67,13,2,13,0.00
2013-7-14,110.4,92.9,80.8,74.1,66.2,60.1,68,44,21,29.80,29.63,15,1,15,0.00
2013-7-15,111.2,98.9,84.6,76.2,63.6,51.1,65,34,16,29.72,29.55,20,3,20,0.00
2013-7-16,108.1,96.3,80.5,71.7,50.0,36.5,56,24,11,29.80,29.64,15,3,18,0.00
2013-7-17,106.7,94.7,78.3,72.5,57.6,34.2,52,30,14,29.90,29.74,11,2,11,0.00
2013-7-18,109.3,97.6,78.6,74.8,61.8,38.5,52,32,17,29.83,29.64,11,2,11,0.00
2013-7-19,101.5,94.2,86.1,75.8,69.6,57.5,69,46,25,29.83,29.66,23,5,23,0.00
2013-7-20,99.6,87.0,76.6,75.7,71.6,67.5,90,62,38,29.83,29.63,16,2,16,0.14
2013-7-21,88.9,81.8,74.0,75.7,72.9,68.8,94,75,52,29.89,29.70,17,1,17,0.68
2013-7-22,96.7,86.4,76.0,78.7,73.0,65.9,94,67,38,29.90,29.76,11,2,11,0.01
2013-7-23,102.1,91.6,78.7,77.8,70.6,62.6,83,53,31,29.89,29.72,13,2,13,0.00
2013-7-24,108.7,95.6,80.3,75.8,68.0,62.7,74,43,24,29.81,29.64,13,2,13,0.00
2013-7-25,103.0,94.0,83.4,73.0,66.7,60.1,64,42,27,29.85,29.71,20,3,20,0.00
2013-7-26,98.1,90.0,81.1,79.0,71.6,63.4,83,56,37,29.98,29.81,32,3,32,0.58
2013-7-27,107.6,94.4,79.8,76.3,67.8,58.1,78,45,24,29.87,29.64,16,2,16,0.00
2013-7-28,108.6,94.4,80.6,75.0,59.7,44.1,65,35,15,29.72,29.59,18,3,18,0.00
2013-7-29,104.3,92.9,75.9,67.9,52.7,36.0,59,27,13,29.85,29.68,16,3,16,0.00
2013-7-30,111.4,95.2,78.5,71.8,57.1,48.1,58,31,14,29.95,29.81,15,2,15,0.00
2013-7-31,111.7,93.9,76.6,69.0,59.6,46.6,61,35,16,29.92,29.74,12,1,12,0.00
2013-8-1,112.4,96.2,79.2,69.1,54.2,43.4,62,27,12,29.81,29.65,25,2,25,0.00
2013-8-2,105.0,91.0,73.6,67.7,52.5,36.4,61,30,10,29.81,29.68,16,3,19,0.00
2013-8-3,104.0,91.0,71.6,63.8,52.9,37.1,56,29,15,29.85,29.69,16,2,16,0.00
2013-8-4,106.3,91.7,74.5,68.2,51.0,32.6,62,28,11,29.85,29.70,16,2,16,0.00
2013-8-5,102.4,89.9,73.5,71.8,57.8,36.4,59,36,14,29.87,29.73,21,4,21,0.00
2013-8-6,105.2,90.9,76.4,72.0,59.3,50.7,72,38,17,29.90,29.75,18,2,18,0.00
2013-8-7,106.7,91.1,75.4,72.0,47.9,16.0,70,31,5,29.88,29.74,19,3,19,0.00
2013-8-8,106.7,89.3,69.4,62.3,44.7,24.7,58,25,6,29.82,29.67,12,2,12,0.00
2013-8-9,106.0,89.5,72.9,62.9,43.1,29.0,57,23,7,29.78,29.68,19,2,19,0.00
2013-8-10,107.3,88.2,68.7,65.2,46.6,24.5,58,27,6,29.87,29.73,24,2,24,0.00
2013-8-11,101.8,86.9,70.3,60.7,46.4,22.9,56,27,9,29.87,29.70,11,2,11,0.00
2013-8-12,106.2,88.6,67.2,61.4,44.6,29.1,49,24,7,29.83,29.68,13,2,13,0.00
2013-8-13,104.7,88.6,71.9,60.0,47.8,29.0,52,27,8,29.87,29.72,11,2,11,0.00
2013-8-14,108.0,91.4,73.3,68.1,58.1,39.2,67,35,10,29.85,29.68,11,2,11,0.00
2013-8-15,108.2,95.5,80.6,72.8,60.0,47.4,54,32,20,29.84,29.69,12,2,12,0.00
2013-8-16,112.0,98.1,82.0,72.9,63.3,56.1,61,34,17,29.81,29.67,13,2,13,0.00
2013-8-17,110.2,97.8,79.5,68.8,62.0,54.3,66,33,18,29.82,29.62,19,3,19,0.00
2013-8-18,104.8,96.1,85.9,73.3,62.1,55.1,45,33,24,29.80,29.64,26,3,26,0.00
2013-8-19,105.2,93.5,84.8,72.8,64.5,57.3,51,39,21,29.85,29.68,9,3,16,0.00
2013-8-20,111.8,96.5,78.8,70.3,57.5,39.0,64,31,13,29.78,29.63,13,2,13,0.00
2013-8-21,107.7,95.7,79.1,73.3,62.0,51.2,56,34,18,29.81,29.67,16,2,16,0.00
2013-8-22,108.3,92.5,80.2,74.5,67.7,57.0,76,47,23,29.82,29.67,22,3,22,0.00
2013-8-23,102.2,90.8,80.2,71.4,66.6,62.9,72,46,30,29.80,29.61,14,3,14,0.00
2013-8-24,100.0,86.8,76.2,74.0,68.1,61.0,84,57,30,29.85,29.69,32,3,32,0.02
2013-8-25,85.5,79.5,75.2,77.0,73.5,70.4,93,82,66,29.94,29.83,12,2,12,0.41
2013-8-26,93.4,81.9,73.1,74.4,71.7,68.0,95,73,47,29.95,29.77,17,3,17,0.04
2013-8-27,100.5,84.6,74.0,73.4,69.7,66.7,84,64,35,29.81,29.65,9,1,9,0.00
2013-8-28,106.9,92.3,78.5,76.3,70.7,62.6,78,52,26,29.84,29.67,19,2,19,0.00
2013-8-29,97.4,86.3,79.0,78.7,73.7,68.7,93,68,44,29.97,29.82,17,3,17,0.20
2013-8-30,95.8,87.0,77.8,79.1,74.1,69.6,91,68,45,29.99,29.85,11,1,11,0.00
2013-8-31,105.5,91.4,80.4,79.7,73.0,65.9,84,58,31,29.89,29.72,25,2,25,0.26
2013-9-1,104.9,90.9,79.0,76.9,71.7,63.6,88,57,29,29.84,29.69,11,2,11,0.00
2013-9-2,105.0,90.2,78.1,74.7,68.2,59.3,76,51,25,29.82,29.66,25,2,25,0.01
2013-9-3,104.8,89.7,75.8,76.2,69.8,62.2,82,55,26,29.85,29.69,11,2,11,0.00
2013-9-4,99.9,89.1,80.5,74.5,69.5,64.7,74,54,34,29.89,29.75,18,1,18,0.00
2013-9-5,110.1,91.8,74.6,73.6,67.0,56.8,84,48,19,29.83,29.69,19,2,19,0.00
2013-9-6,105.2,90.4,77.6,76.4,67.5,60.1,83,50,25,29.87,29.66,25,2,25,0.34
2013-9-7,94.5,83.4,76.2,75.5,72.2,66.4,89,70,42,29.90,29.76,10,2,10,0.00
2013-9-8,98.3,84.6,75.4,75.1,70.9,63.6,87,66,33,29.79,29.66,23,2,23,0.00
2013-9-9,97.7,82.6,74.2,74.0,69.9,61.5,91,69,32,29.77,29.59,22,2,22,0.09
2013-9-10,91.3,80.4,72.8,73.4,69.0,64.5,94,70,43,29.82,29.71,6,1,12,0.01
2013-9-11,97.9,84.0,70.6,73.4,66.5,55.8,87,59,28,29.90,29.76,13,1,13,0.00
2013-9-12,101.3,86.6,73.7,68.0,61.6,50.9,73,46,20,29.85,29.68,15,2,15,0.00
2013-9-13,102.9,88.0,74.5,69.8,60.5,49.2,70,42,19,29.72,29.55,12,2,12,0.00
2013-9-14,108.0,88.9,70.5,69.4,57.0,39.5,69,38,11,29.65,29.53,10,1,10,0.00
2013-9-15,105.7,91.1,73.7,69.3,58.9,52.5,56,35,18,29.69,29.59,10,2,10,0.00
2013-9-16,107.3,92.4,77.5,69.8,57.6,45.3,56,33,15,29.73,29.58,12,2,12,0.00
2013-9-17,107.5,90.6,70.9,66.9,51.7,38.0,61,30,11,29.67,29.50,18,2,18,0.00
2013-9-18,101.3,85.5,71.9,54.9,43.4,30.8,49,25,10,29.67,29.55,13,1,13,0.00
2013-9-19,102.6,83.5,65.2,59.3,46.5,31.5,53,30,9,29.73,29.61,10,1,10,0.00
2013-9-20,102.3,84.5,62.5,57.9,48.1,39.1,61,31,14,29.75,29.62,11,2,13,0.00
2013-9-21,102.0,85.7,68.2,65.9,53.4,35.4,70,37,11,29.74,29.55,19,2,19,0.00
2013-9-22,87.6,76.4,64.3,55.4,44.5,33.5,72,35,16,29.74,29.59,16,3,19,0.00
2013-9-23,95.3,77.6,57.9,53.6,40.4,27.1,61,28,9,29.87,29.74,13,1,13,0.00
2013-9-24,97.8,79.2,57.6,51.8,41.2,31.7,65,28,10,29.89,29.70,16,2,16,0.00
2013-9-25,96.4,83.0,70.3,53.9,42.5,28.6,49,26,13,29.73,29.51,24,2,24,0.00
2013-9-26,84.8,72.8,60.5,44.9,34.4,18.7,48,25,14,29.76,29.57,18,2,18,0.00
2013-9-27,83.0,70.7,56.7,39.3,30.8,24.0,43,24,13,29.96,29.76,28,4,28,0.00
2013-9-28,88.5,72.4,51.5,47.8,33.6,23.5,53,26,11,30.05,29.92,15,2,15,0.00
2013-9-29,93.2,74.7,54.7,43.5,31.9,23.2,44,22,10,30.05,29.87,8,1,12,0.00
2013-9-30,96.5,76.9,55.9,53.5,39.8,29.7,65,30,10,29.92,29.74,11,1,11,0.00
2013-10-1,95.4,77.9,56.1,54.9,45.0,33.7,64,34,12,29.87,29.74,15,2,15,0.00
2013-10-2,95.5,78.8,61.8,54.2,49.2,44.1,72,38,19,29.86,29.70,14,2,17,0.00
2013-10-3,92.2,79.3,65.4,57.8,43.6,19.9,65,31,14,29.77,29.63,17,2,17,0.00
2013-10-4,80.2,72.9,66.2,29.8,22.9,10.0,22,16,9,30.06,29.76,31,11,31,0.00
2013-10-5,82.3,70.6,58.4,34.0,26.9,19.5,31,20,10,30.21,30.05,22,4,22,0.00
2013-10-6,89.3,73.2,51.1,37.7,23.9,9.2,44,17,5,30.14,29.94,17,2,17,0.00
2013-10-7,89.3,70.3,51.3,50.1,32.5,14.3,55,26,12,29.96,29.79,6,1,6,0.00
2013-10-8,91.5,75.1,51.2,45.2,31.7,18.2,59,23,7,29.81,29.62,21,2,21,0.00
2013-10-9,73.5,68.0,62.2,46.2,43.6,38.9,52,42,32,29.72,29.60,24,4,24,0.00
2013-10-10,75.3,63.4,52.0,49.5,42.8,36.8,77,50,26,29.95,29.72,16,1,16,0.00
2013-10-11,80.8,64.9,47.5,45.7,39.9,34.9,70,42,22,30.02,29.88,15,1,15,0.00
2013-10-12,83.3,67.4,47.9,48.8,40.7,35.1,68,40,23,29.94,29.80,8,1,14,0.00
2013-10-13,85.8,70.2,53.4,49.0,39.6,33.1,72,36,16,29.92,29.79,20,2,20,0.00
2013-10-14,83.3,68.8,51.5,44.3,37.3,28.8,75,35,17,30.05,29.90,15,2,15,0.00
2013-10-15,83.3,67.9,51.4,44.9,32.9,25.5,65,30,13,29.97,29.86,22,3,22,0.00
2013-10-16,83.3,69.4,54.8,39.5,30.9,26.0,38,25,14,30.10,29.96,17,2,17,0.00
2013-10-17,87.5,65.1,44.4,38.2,28.1,15.2,55,28,8,30.05,29.86,11,1,11,0.00
2013-10-18,88.4,67.2,45.0,38.4,26.7,20.3,52,24,10,30.01,29.89,10,1,14,0.00
2013-10-19,90.6,69.3,48.0,36.6,27.2,21.2,47,23,8,30.03,29.88,11,1,11,0.00
2013-10-20,90.5,68.8,46.4,39.9,27.0,17.7,60,23,9,29.93,29.78,7,1,7,0.00
2013-10-21,88.3,69.1,47.3,45.6,27.6,17.6,47,23,9,29.95,29.83,7,1,11,0.00
2013-10-22,88.4,68.0,49.5,41.9,30.3,20.7,53,26,13,30.00,29.83,15,2,15,0.00
2013-10-23,90.3,71.7,54.6,52.2,32.5,23.6,45,25,12,29.88,29.76,13,1,13,0.00
2013-10-24,88.8,70.8,52.7,48.1,33.1,24.9,53,26,13,29.91,29.79,9,1,9,0.00
2013-10-25,90.3,69.9,48.0,46.0,35.5,27.9,60,31,12,30.04,29.91,8,1,8,0.00
2013-10-26,88.8,71.0,53.0,49.6,37.0,27.8,53,30,18,30.06,29.91,16,2,16,0.00
2013-10-27,92.3,73.2,51.2,41.7,34.7,27.5,52,27,11,29.91,29.65,12,1,12,0.00
2013-10-28,77.9,70.4,60.2,50.0,44.2,33.7,53,39,23,29.84,29.64,33,5,33,0.00
2013-10-29,73.0,61.4,52.8,46.7,41.2,36.3,71,49,29,29.92,29.83,18,1,18,0.00
2013-10-30,76.2,60.5,49.2,42.1,37.4,29.5,75,45,23,30.04,29.90,19,1,19,0.00
2013-10-31,79.2,59.5,40.3,36.7,31.3,27.4,66,37,17,30.15,30.00,13,1,13,0.00
2013-11-1,82.7,62.8,45.3,41.8,31.7,27.3,61,34,14,30.16,29.98,15,1,15,0.00
2013-11-2,83.0,64.0,45.0,42.4,33.7,27.8,60,35,16,30.00,29.79,8,1,12,0.00
2013-11-3,82.1,65.3,45.6,42.8,34.5,28.5,68,35,16,29.83,29.69,10,1,10,0.00
2013-11-4,78.2,62.3,45.3,40.1,31.4,26.4,54,33,16,29.84,29.69,23,2,23,0.00
2013-11-5,70.8,62.4,55.7,33.0,23.0,14.7,35,23,14,30.17,29.84,28,6,28,0.00
2013-11-6,75.7,59.4,40.4,27.2,19.4,12.7,48,23,10,30.31,30.17,16,1,16,0.00
2013-11-7,82.7,60.6,42.8,26.6,20.1,13.6,42,23,8,30.20,30.01,13,1,16,0.00
2013-11-8,85.0,62.5,44.8,30.5,22.3,13.6,41,23,9,30.06,29.90,10,1,10,0.00
2013-11-9,82.7,62.5,43.9,37.5,27.8,20.9,48,29,13,30.08,29.96,10,1,10,0.00
2013-11-10,82.0,62.0,45.5,42.1,33.4,25.4,56,36,19,30.11,30.00,9,1,9,0.00
2013-11-11,86.0,66.0,47.1,38.4,32.7,30.0,60,32,15,30.09,29.98,8,1,13,0.00
2013-11-12,86.6,69.2,50.9,40.0,30.4,21.2,56,28,11,30.18,30.03,17,2,17,0.00
2013-11-13,87.0,70.9,56.4,43.7,34.5,23.5,49,27,17,30.08,29.90,17,2,17,0.00
2013-11-14,87.8,66.4,47.7,38.7,32.3,28.0,52,30,13,29.99,29.73,12,1,12,0.00
2013-11-15,84.3,67.9,52.3,49.9,40.3,30.5,60,38,20,29.73,29.50,19,2,19,0.00
2013-11-16,73.8,63.1,48.0,46.3,42.1,38.8,75,47,30,29.85,29.63,17,2,17,0.00
2013-11-17,72.4,59.9,45.1,49.1,43.7,36.4,74,56,41,30.05,29.85,11,1,11,0.00
2013-11-18,76.6,61.2,46.6,48.7,44.5,39.8,79,57,36,30.11,29.96,11,1,11,0.00
2013-11-19,73.1,61.3,47.2,50.5,45.8,40.3,81,58,40,29.99,29.83,9,1,9,0.00
2013-11-20,75.3,63.9,51.4,49.0,45.7,42.8,74,53,36,29.87,29.76,13,1,13,0.00
2013-11-21,73.3,64.0,55.5,55.8,50.9,45.3,92,64,46,29.89,29.80,12,1,12,0.19
2013-11-22,56.6,53.1,50.1,54.6,51.3,48.9,96,94,91,30.00,29.80,10,1,10,0.54
2013-11-23,56.9,52.6,49.9,52.5,50.1,48.6,96,91,80,30.11,29.98,10,0,10,0.09
2013-11-24,64.8,55.1,49.6,50.4,48.6,46.4,93,80,54,30.19,30.10,8,0,8,0.00
2013-11-25,59.7,49.4,41.2,49.9,46.1,39.8,96,89,65,30.25,30.16,4,0,4,0.01
2013-11-26,69.5,54.7,42.1,50.0,44.6,40.1,95,72,39,30.29,30.13,16,1,16,0.00
2013-11-27,71.5,57.8,49.0,46.5,41.0,31.3,85,58,23,30.14,29.94,15,1,15,0.00
2013-11-28,74.0,57.2,44.5,45.0,40.0,35.5,79,56,25,30.07,29.95,10,1,17,0.00
2013-11-29,71.2,55.8,42.7,45.3,41.8,37.0,92,63,29,30.18,30.06,14,1,14,0.00
2013-11-30,72.2,56.4,43.0,49.0,43.8,39.4,90,66,34,30.21,30.07,10,0,10,0.00
2013-12-1,73.8,56.6,42.0,47.0,42.2,37.3,90,63,31,30.25,30.13,11,1,11,0.00
2013-12-2,70.2,54.2,39.9,46.2,41.3,35.0,91,65,28,30.17,29.84,7,0,7,0.00
2013-12-3,76.2,60.3,41.7,49.3,42.4,37.1,89,57,28,29.84,29.57,13,2,13,0.00
2013-12-4,61.6,55.1,45.1,48.8,32.0,14.4,70,43,25,29.99,29.64,23,5,23,0.00
2013-12-5,55.4,45.5,37.1,19.7,17.6,14.2,47,33,21,30.14,29.98,14,1,14,0.00
2013-12-6,58.1,43.3,29.2,30.2,21.9,16.5,69,45,22,30.24,30.10,15,1,15,0.00
2013-12-7,61.9,49.7,31.5,39.1,33.1,24.8,85,55,33,30.11,29.90,20,2,20,0.00
2013-12-8,55.6,46.8,37.3,35.8,17.9,9.5,67,33,17,30.22,29.99,20,2,20,0.00
2013-12-9,50.9,42.2,34.1,11.5,7.5,4.1,36,24,15,30.45,30.22,27,6,29,0.00
2013-12-10,56.2,42.8,28.2,14.8,9.7,5.2,56,27,13,30.44,30.19,31,2,31,0.00
2013-12-11,61.6,45.9,29.2,20.5,16.8,10.5,54,33,16,30.31,30.19,17,1,17,0.00
2013-12-12,64.2,52.2,42.4,33.9,25.6,19.0,64,37,22,30.23,30.11,14,1,14,0.00
2013-12-13,66.3,49.0,32.5,33.4,29.9,25.3,79,51,23,30.23,30.10,14,1,14,0.00
2013-12-14,67.8,55.5,40.4,28.1,24.5,21.8,58,31,18,30.39,30.23,22,2,22,0.00
2013-12-15,70.5,54.0,38.9,32.5,27.4,23.4,59,38,20,30.37,30.19,10,1,10,0.00
2013-12-16,76.3,57.0,40.5,32.1,28.4,24.4,59,36,17,30.26,30.12,9,1,9,0.00
2013-12-17,75.1,56.7,42.2,34.3,30.7,27.6,58,40,19,30.23,30.06,11,1,11,0.00
2013-12-18,71.3,56.6,44.2,39.4,33.6,28.9,69,44,23,30.06,29.75,12,1,12,0.00
2013-12-19,67.4,57.6,46.7,42.4,39.6,35.0,72,52,36,29.75,29.64,19,1,19,0.00
2013-12-20,66.8,56.2,43.3,44.7,35.0,24.3,84,48,27,29.85,29.66,23,4,23,0.00
2013-12-21,68.0,52.7,37.2,36.9,27.0,20.4,69,39,19,30.03,29.83,11,1,11,0.00
2013-12-22,67.5,50.8,35.9,39.3,34.3,30.1,84,57,28,30.29,30.03,12,1,12,0.00
2013-12-23,69.2,52.2,37.2,33.5,30.0,26.3,69,46,22,30.42,30.27,14,1,14,0.00
2013-12-24,72.3,54.0,36.5,36.0,32.6,27.3,74,47,25,30.28,30.12,11,1,11,0.00
2013-12-25,72.0,60.6,46.7,32.7,23.9,12.5,41,26,13,30.32,30.18,17,2,17,0.00
2013-12-26,72.0,53.1,36.6,21.7,17.3,10.4,47,27,10,30.29,30.14,12,1,12,0.00
2013-12-27,73.7,53.7,38.7,22.1,17.0,8.3,43,26,9,30.25,30.08,14,1,14,0.00
2013-12-28,62.1,47.2,37.1,36.0,25.9,16.8,59,44,28,30.12,29.94,12,1,12,0.00
2013-12-29,68.2,55.2,36.1,29.8,21.0,13.9,72,31,13,30.19,30.00,33,6,33,0.00
2013-12-30,68.3,50.7,35.3,22.0,18.0,13.5,49,30,13,30.31,30.18,12,1,12,0.00
2013-12-31,67.5,47.0,31.2,22.0,19.6,16.8,61,37,15,30.24,30.10,8,1,10,0.00
2014-1-1,72.2,50.7,32.5,30.0,22.7,18.5,63,37,15,30.21,30.08,10,0,10,0.00
2014-1-2,74.1,54.6,39.0,32.8,25.9,22.6,56,36,15,30.19,30.03,13,1,13,0.00